| time (UTC) | temp F | wind direction | speed MPH | gust MPH | rain 1hr in | rain 24hr in | rain mn in | humidity % | barometer mb |
| 20260506195430 | 68 | 235 | 0.0 | 3.0 | 0.00 | 0.09 | 0.09 | 86 | 1011.2 |
| 20260506194927 | 68 | 204 | 2.0 | 2.0 | 0.00 | 0.09 | 0.09 | 86 | 1010.7 |
| 20260506194424 | 67 | 290 | 0.0 | 3.0 | 0.00 | 0.09 | 0.09 | 87 | 1010.8 |
| 20260506193921 | 67 | 264 | 0.0 | 3.0 | 0.00 | 0.09 | 0.09 | 86 | 1010.6 |
| 20260506193419 | 67 | 221 | 0.0 | 5.0 | 0.00 | 0.09 | 0.09 | 86 | 1010.5 |
| 20260506192915 | 67 | 238 | 1.0 | 2.0 | 0.00 | 0.09 | 0.09 | 87 | 1010.6 |
| 20260506192412 | 67 | 201 | 0.0 | 3.0 | 0.00 | 0.09 | 0.09 | 87 | 1010.7 |
| 20260506191909 | 67 | 173 | 2.0 | 4.0 | 0.00 | 0.09 | 0.09 | 87 | 1010.8 |
| 20260506191405 | 66 | 308 | 2.0 | 3.0 | 0.00 | 0.09 | 0.09 | 88 | 1011.1 |
| 20260506190902 | 66 | 198 | 2.0 | 3.0 | 0.00 | 0.09 | 0.09 | 88 | 1011.1 |
| 20260506190358 | 66 | 150 | 0.0 | 3.0 | 0.00 | 0.09 | 0.09 | 89 | 1011.4 |
| 20260506185855 | 66 | 340 | 2.0 | 3.0 | 0.00 | 0.09 | 0.09 | 89 | 1011.4 |
| 20260506185352 | 65 | 216 | 0.0 | 5.0 | 0.00 | 0.09 | 0.09 | 89 | 1011.7 |
| 20260506184849 | 65 | 221 | 5.0 | 8.0 | 0.00 | 0.09 | 0.09 | 89 | 1011.6 |
| 20260506184346 | 65 | 301 | 2.0 | 4.0 | 0.00 | 0.09 | 0.09 | 90 | 1011.6 |
| 20260506183844 | 65 | 177 | 0.0 | 3.0 | 0.00 | 0.09 | 0.09 | 90 | 1011.6 |
| 20260506183339 | 65 | 214 | 3.0 | 3.0 | 0.00 | 0.09 | 0.09 | 90 | 1011.8 |
| 20260506182836 | 65 | 293 | 2.0 | 3.0 | 0.00 | 0.09 | 0.09 | 91 | 1011.6 |
| 20260506182333 | 65 | 255 | 2.0 | 6.0 | 0.00 | 0.09 | 0.09 | 90 | 1011.6 |
| 20260506181831 | 65 | 200 | 2.0 | 7.0 | 0.00 | 0.09 | 0.09 | 88 | 1011.6 |
| 20260506181329 | 65 | 211 | 5.0 | 10.0 | 0.00 | 0.09 | 0.09 | 88 | 1012.0 |
| 20260506180826 | 66 | 139 | 3.0 | 6.0 | 0.00 | 0.09 | 0.09 | 88 | 1012.1 |
| 20260506180321 | 66 | 300 | 1.0 | 5.0 | 0.00 | 0.09 | 0.09 | 88 | 1012.3 |
| 20260506175818 | 66 | 242 | 2.0 | 3.0 | 0.00 | 0.09 | 0.09 | 88 | 1012.4 |
| 20260506175315 | 66 | 180 | 0.0 | 3.0 | 0.00 | 0.09 | 0.09 | 89 | 1012.2 |
| 20260506174812 | 66 | 186 | 2.0 | 4.0 | 0.00 | 0.09 | 0.09 | 89 | 1012.3 |
| 20260506174309 | 65 | 144 | 3.0 | 5.0 | 0.00 | 0.09 | 0.09 | 89 | 1012.5 |
| 20260506173807 | 65 | 248 | 2.0 | 5.0 | 0.00 | 0.09 | 0.09 | 90 | 1012.3 |
| 20260506173304 | 65 | 194 | 2.0 | 6.0 | 0.00 | 0.09 | 0.09 | 89 | 1012.3 |
| 20260506172801 | 65 | 229 | 3.0 | 4.0 | 0.00 | 0.09 | 0.09 | 91 | 1012.1 |
| 20260506172257 | 64 | 248 | 2.0 | 6.0 | 0.00 | 0.09 | 0.09 | 91 | 1012.1 |
| 20260506171755 | 64 | 218 | 2.0 | 3.0 | 0.00 | 0.09 | 0.09 | 93 | 1012.1 |
| 20260506171251 | 64 | 238 | 4.0 | 4.0 | 0.00 | 0.09 | 0.09 | 92 | 1012.1 |
| 20260506170749 | 64 | 228 | 2.0 | 4.0 | 0.00 | 0.09 | 0.09 | 92 | 1012.0 |
| 20260506170245 | 64 | 203 | 2.0 | 8.0 | 0.00 | 0.09 | 0.09 | 92 | 1012.2 |
| 20260506165744 | 64 | 126 | 3.0 | 4.0 | 0.00 | 0.09 | 0.09 | 93 | 1012.6 |
| 20260506165241 | 64 | 238 | 0.0 | 5.0 | 0.00 | 0.09 | 0.09 | 93 | 1012.9 |
| 20260506164738 | 64 | 313 | 1.0 | 5.0 | 0.00 | 0.09 | 0.09 | 94 | 1012.4 |
| 20260506164235 | 64 | 269 | 0.0 | 2.0 | 0.00 | 0.09 | 0.09 | 94 | 1012.6 |
| 20260506163731 | 64 | 197 | 4.0 | 4.0 | 0.02 | 0.09 | 0.09 | 93 | 1012.9 |
| 20260506163226 | 64 | 202 | 2.0 | 4.0 | 0.00 | 0.08 | 0.08 | 93 | 1013.0 |
| 20260506162723 | 63 | 151 | 3.0 | 5.0 | 0.00 | 0.08 | 0.08 | 93 | 1012.9 |
| 20260506162220 | 63 | 207 | 1.0 | 4.0 | 0.00 | 0.08 | 0.08 | 94 | 1012.8 |
| 20260506161718 | 63 | 269 | 0.0 | 4.0 | 0.02 | 0.08 | 0.08 | 94 | 1012.5 |
| 20260506161215 | 63 | 269 | 0.0 | 2.0 | 0.02 | 0.08 | 0.08 | 95 | 1012.7 |
| 20260506160713 | 62 | 304 | 0.0 | 2.0 | 0.02 | 0.08 | 0.08 | 95 | 1012.5 |
| 20260506160209 | 62 | 185 | 3.0 | 6.0 | 0.02 | 0.08 | 0.08 | 95 | 1012.6 |
| 20260506155707 | 62 | 227 | 2.0 | 3.0 | 0.02 | 0.08 | 0.08 | 95 | 1012.7 |
| 20260506155204 | 62 | 264 | 2.0 | 4.0 | 0.00 | 0.07 | 0.07 | 95 | 1012.6 |
| 20260506153306 | 62 | 240 | 1.0 | 2.0 | 0.00 | 0.07 | 0.07 | 95 | 1012.8 |
| 20260506152803 | 62 | 243 | 2.0 | 5.0 | 0.00 | 0.07 | 0.07 | 95 | 1013.0 |
| 20260506152300 | 62 | 269 | 0.0 | 2.0 | 0.02 | 0.07 | 0.07 | 96 | 1013.3 |
| 20260506151759 | 62 | 286 | 1.0 | 2.0 | 0.02 | 0.07 | 0.07 | 96 | 1013.2 |
| 20260506151255 | 62 | 310 | 0.0 | 4.0 | 0.00 | 0.07 | 0.07 | 96 | 1013.1 |
| 20260506150751 | 61 | 7 | 0.0 | 2.0 | 0.00 | 0.07 | 0.07 | 96 | 1013.2 |
| 20260506150249 | 61 | 283 | 0.0 | 2.0 | 0.00 | 0.07 | 0.07 | 97 | 1013.5 |
| 20260506145746 | 62 | 198 | 2.0 | 3.0 | 0.00 | 0.07 | 0.07 | 97 | 1013.7 |
| 20260506145242 | 61 | 237 | 1.0 | 4.0 | 0.00 | 0.07 | 0.07 | 97 | 1013.5 |
| 20260506144739 | 61 | 186 | 1.0 | 3.0 | 0.00 | 0.07 | 0.07 | 97 | 1013.5 |
| 20260506144236 | 61 | 255 | 0.0 | 4.0 | 0.02 | 0.07 | 0.07 | 97 | 1013.6 |
| 20260506143734 | 60 | 269 | 0.0 | 3.0 | 0.02 | 0.07 | 0.07 | 97 | 1013.6 |
| 20260506143231 | 61 | 259 | 2.0 | 2.0 | 0.05 | 0.07 | 0.07 | 97 | 1013.6 |
| 20260506142730 | 61 | 263 | 1.0 | 2.0 | 0.21 | 0.07 | 0.07 | 96 | 1013.7 |
| 20260506142227 | 61 | 144 | 2.0 | 4.0 | 0.21 | 0.06 | 0.06 | 94 | 1014.0 |
| 20260506141725 | 62 | 198 | 4.0 | 4.0 | 0.14 | 0.04 | 0.04 | 93 | 1013.5 |
| 20260506141224 | 62 | 207 | 2.0 | 3.0 | 0.07 | 0.02 | 0.02 | 91 | 1013.5 |
| 20260506140721 | 62 | 242 | 3.0 | 4.0 | 0.02 | 0.01 | 0.01 | 89 | 1013.6 |
| 20260506140217 | 62 | 188 | 1.0 | 5.0 | 0.02 | 0.01 | 0.01 | 88 | 1013.5 |
| 20260506135714 | 63 | 232 | 2.0 | 5.0 | 0.02 | 0.01 | 0.01 | 87 | 1013.3 |
| 20260506135210 | 63 | 277 | 0.0 | 4.0 | 0.02 | 0.00 | 0.00 | 86 | 1013.3 |
| 20260506134707 | 63 | 212 | 6.0 | 6.0 | 0.00 | 0.00 | 0.00 | 82 | 1013.5 |
| 20260506134203 | 64 | 132 | 0.0 | 5.0 | 0.00 | 0.00 | 0.00 | 79 | 1013.4 |
| 20260506133701 | 65 | 289 | 2.0 | 5.0 | 0.00 | 0.00 | 0.00 | 77 | 1013.4 |
| 20260506133157 | 65 | 171 | 4.0 | 5.0 | 0.00 | 0.00 | 0.00 | 76 | 1013.2 |
| 20260506132655 | 65 | 164 | 1.0 | 3.0 | 0.00 | 0.00 | 0.00 | 77 | 1013.2 |
| 20260506132151 | 65 | 199 | 2.0 | 4.0 | 0.00 | 0.00 | 0.00 | 77 | 1013.2 |
| 20260506131649 | 65 | 264 | 3.0 | 4.0 | 0.00 | 0.00 | 0.00 | 77 | 1013.4 |
| 20260506131145 | 65 | 308 | 1.0 | 2.0 | 0.00 | 0.00 | 0.00 | 76 | 1013.1 |
| 20260506130642 | 65 | 282 | 3.0 | 4.0 | 0.00 | 0.00 | 0.00 | 76 | 1013.3 |
| 20260506130140 | 65 | 256 | 1.0 | 5.0 | 0.00 | 0.00 | 0.00 | 77 | 1013.2 |
| 20260506125638 | 65 | 138 | 3.0 | 4.0 | 0.00 | 0.00 | 0.00 | 78 | 1013.0 |
| 20260506125135 | 64 | 180 | 1.0 | 6.0 | 0.00 | 0.00 | 0.00 | 77 | 1013.2 |
| 20260506124633 | 64 | 287 | 2.0 | 4.0 | 0.00 | 0.00 | 0.00 | 78 | 1012.9 |
| 20260506124130 | 64 | 185 | 0.0 | 3.0 | 0.00 | 0.00 | 0.00 | 79 | 1013.2 |
| 20260506123628 | 64 | 214 | 2.0 | 4.0 | 0.00 | 0.00 | 0.00 | 79 | 1013.2 |
| 20260506123126 | 64 | 141 | 1.0 | 5.0 | 0.00 | 0.00 | 0.00 | 79 | 1013.2 |
| 20260506122622 | 64 | 210 | 3.0 | 4.0 | 0.00 | 0.00 | 0.00 | 79 | 1012.8 |
| 20260506122120 | 65 | 198 | 0.0 | 6.0 | 0.00 | 0.00 | 0.00 | 77 | 1012.9 |
| 20260506121618 | 65 | 178 | 3.0 | 4.0 | 0.00 | 0.00 | 0.00 | 77 | 1012.9 |
| 20260506121114 | 65 | 202 | 2.0 | 7.0 | 0.00 | 0.00 | 0.00 | 76 | 1012.9 |
| 20260506120612 | 65 | 210 | 4.0 | 5.0 | 0.00 | 0.00 | 0.00 | 76 | 1012.9 |
| 20260506120109 | 65 | 215 | 3.0 | 3.0 | 0.00 | 0.00 | 0.00 | 76 | 1012.8 |
| 20260506115608 | 65 | 283 | 3.0 | 5.0 | 0.00 | 0.00 | 0.00 | 76 | 1012.9 |
| 20260506115106 | 65 | 234 | 2.0 | 3.0 | 0.00 | 0.00 | 0.00 | 76 | 1012.9 |
| 20260506114602 | 65 | 168 | 0.0 | 4.0 | 0.00 | 0.00 | 0.00 | 76 | 1012.9 |
| 20260506114101 | 65 | 177 | 2.0 | 5.0 | 0.00 | 0.00 | 0.00 | 76 | 1013.0 |
| 20260506113558 | 65 | 147 | 2.0 | 3.0 | 0.00 | 0.00 | 0.00 | 76 | 1012.9 |
| 20260506113055 | 64 | 168 | 3.0 | 9.0 | 0.00 | 0.00 | 0.00 | 76 | 1012.8 |
| 20260506112552 | 64 | 154 | 4.0 | 5.0 | 0.00 | 0.00 | 0.00 | 76 | 1012.8 |
| 20260506112049 | 64 | 263 | 1.0 | 6.0 | 0.00 | 0.00 | 0.00 | 76 | 1013.0 |
| 20260506111547 | 64 | 9 | 1.0 | 3.0 | 0.00 | 0.00 | 0.00 | 76 | 1012.9 |
| 20260506111044 | 64 | 212 | 6.0 | 6.0 | 0.00 | 0.00 | 0.00 | 76 | 1012.8 |
| 20260506110542 | 64 | 274 | 4.0 | 4.0 | 0.00 | 0.00 | 0.00 | 76 | 1012.9 |
| 20260506110039 | 64 | 174 | 1.0 | 3.0 | 0.00 | 0.00 | 0.00 | 76 | 1012.8 |
| 20260506105535 | 64 | 189 | 1.0 | 5.0 | 0.00 | 0.00 | 0.00 | 76 | 1012.6 |
| 20260506105032 | 64 | 164 | 0.0 | 4.0 | 0.00 | 0.00 | 0.00 | 76 | 1012.7 |
| 20260506104530 | 64 | 204 | 1.0 | 3.0 | 0.00 | 0.00 | 0.00 | 76 | 1012.8 |
| 20260506104028 | 64 | 187 | 2.0 | 6.0 | 0.00 | 0.00 | 0.00 | 76 | 1012.7 |
| 20260506103525 | 64 | 192 | 3.0 | 6.0 | 0.00 | 0.00 | 0.00 | 76 | 1013.1 |
| 20260506103021 | 64 | 220 | 0.0 | 7.0 | 0.00 | 0.00 | 0.00 | 76 | 1012.9 |
| 20260506102520 | 64 | 57 | 0.0 | 2.0 | 0.00 | 0.00 | 0.00 | 76 | 1013.2 |
| 20260506102017 | 64 | 261 | 0.0 | 4.0 | 0.00 | 0.00 | 0.00 | 76 | 1013.3 |
| 20260506101513 | 64 | 243 | 1.0 | 4.0 | 0.00 | 0.00 | 0.00 | 76 | 1013.1 |
| 20260506101011 | 64 | 322 | 1.0 | 3.0 | 0.00 | 0.00 | 0.00 | 76 | 1013.0 |
| 20260506100509 | 64 | 257 | 0.0 | 5.0 | 0.00 | 0.00 | 0.00 | 76 | 1012.9 |
| 20260506100007 | 64 | 231 | 3.0 | 4.0 | 0.00 | 0.00 | 0.00 | 76 | 1013.0 |
| 20260506095505 | 64 | 178 | 0.0 | 6.0 | 0.00 | 0.00 | 0.00 | 76 | 1012.7 |
| 20260506095001 | 64 | 208 | 2.0 | 4.0 | 0.00 | 0.00 | 0.00 | 76 | 1013.0 |
| 20260506094459 | 64 | 309 | 0.0 | 7.0 | 0.00 | 0.00 | 0.00 | 76 | 1013.0 |
| 20260506093956 | 64 | 75 | 0.0 | 4.0 | 0.00 | 0.00 | 0.00 | 77 | 1013.0 |
| 20260506093455 | 64 | 228 | 0.0 | 4.0 | 0.00 | 0.00 | 0.00 | 77 | 1012.7 |
| 20260506092952 | 64 | 273 | 2.0 | 4.0 | 0.00 | 0.00 | 0.00 | 77 | 1012.5 |
| 20260506092450 | 64 | 264 | 3.0 | 5.0 | 0.00 | 0.00 | 0.00 | 77 | 1012.7 |
| 20260506091946 | 64 | 84 | 1.0 | 1.0 | 0.00 | 0.00 | 0.00 | 78 | 1012.7 |
| 20260506091444 | 64 | 196 | 6.0 | 6.0 | 0.00 | 0.00 | 0.00 | 77 | 1012.6 |
| 20260506090941 | 64 | 269 | 0.0 | 6.0 | 0.00 | 0.00 | 0.00 | 77 | 1012.8 |
| 20260506090439 | 64 | 210 | 3.0 | 6.0 | 0.00 | 0.00 | 0.00 | 77 | 1012.8 |
| 20260506085935 | 64 | 187 | 1.0 | 4.0 | 0.00 | 0.00 | 0.00 | 78 | 1013.0 |
| 20260506085432 | 64 | 249 | 4.0 | 6.0 | 0.00 | 0.00 | 0.00 | 77 | 1012.9 |
| 20260506084928 | 64 | 219 | 1.0 | 4.0 | 0.00 | 0.00 | 0.00 | 77 | 1013.2 |
| 20260506084426 | 64 | 241 | 2.0 | 4.0 | 0.00 | 0.00 | 0.00 | 77 | 1012.9 |
| 20260506083921 | 64 | 207 | 1.0 | 5.0 | 0.00 | 0.00 | 0.00 | 77 | 1013.2 |
| 20260506083419 | 64 | 264 | 2.0 | 4.0 | 0.00 | 0.00 | 0.00 | 77 | 1013.2 |
| 20260506082916 | 64 | 254 | 2.0 | 4.0 | 0.00 | 0.00 | 0.00 | 77 | 1013.2 |
| 20260506082414 | 64 | 145 | 1.0 | 4.0 | 0.00 | 0.00 | 0.00 | 77 | 1013.2 |
| 20260506081909 | 64 | 206 | 2.0 | 4.0 | 0.00 | 0.00 | 0.00 | 76 | 1013.4 |
| 20260506081408 | 64 | 219 | 1.0 | 3.0 | 0.00 | 0.00 | 0.00 | 76 | 1013.1 |
| 20260506080904 | 64 | 211 | 2.0 | 3.0 | 0.00 | 0.00 | 0.00 | 76 | 1013.3 |
| 20260506080402 | 64 | 168 | 0.0 | 2.0 | 0.00 | 0.00 | 0.00 | 76 | 1013.2 |
| 20260506073345 | 65 | 216 | 3.0 | 4.0 | 0.00 | 0.00 | 0.00 | 74 | 1013.4 |
| 20260506072842 | 65 | 261 | 0.0 | 3.0 | 0.00 | 0.00 | 0.00 | 74 | 1013.4 |
| 20260506072340 | 65 | 257 | 2.0 | 5.0 | 0.00 | 0.00 | 0.00 | 74 | 1013.4 |
| 20260506071837 | 65 | 161 | 1.0 | 3.0 | 0.00 | 0.00 | 0.00 | 73 | 1013.5 |
| 20260506071335 | 65 | 297 | 0.0 | 3.0 | 0.00 | 0.00 | 0.00 | 73 | 1013.2 |
| 20260506070831 | 66 | 145 | 0.0 | 3.0 | 0.00 | 0.00 | 0.00 | 73 | 1013.4 |
| 20260506070328 | 66 | 257 | 2.0 | 6.0 | 0.00 | 0.00 | 0.00 | 72 | 1013.5 |
| 20260506062306 | 67 | 277 | 1.0 | 6.0 | 0.00 | 0.00 | 0.00 | 71 | 1013.7 |
| 20260506061802 | 67 | 212 | 3.0 | 8.0 | 0.00 | 0.00 | 0.00 | 71 | 1013.7 |
| 20260506061259 | 67 | 257 | 1.0 | 2.0 | 0.00 | 0.00 | 0.00 | 71 | 1013.6 |
| 20260506060757 | 67 | 226 | 1.0 | 3.0 | 0.00 | 0.00 | 0.00 | 71 | 1013.5 |
| 20260506060254 | 67 | 243 | 2.0 | 3.0 | 0.00 | 0.00 | 0.00 | 70 | 1013.5 |
| 20260506051226 | 68 | 257 | 2.0 | 4.0 | 0.00 | 0.00 | 0.00 | 68 | 1013.9 |
| 20260506050724 | 68 | 217 | 3.0 | 7.0 | 0.00 | 0.00 | 0.00 | 67 | 1013.8 |
| 20260506050221 | 68 | 242 | 4.0 | 6.0 | 0.00 | 0.00 | 0.00 | 67 | 1013.9 |
| 20260506044707 | 68 | 229 | 0.0 | 2.0 | 0.00 | 0.00 | 0.00 | 66 | 1014.0 |
| 20260506044203 | 69 | 155 | 2.0 | 4.0 | 0.00 | 0.00 | 0.00 | 66 | 1014.3 |
| 20260506043701 | 69 | 250 | 2.0 | 3.0 | 0.00 | 0.00 | 0.00 | 65 | 1014.2 |
| 20260506043158 | 69 | 187 | 2.0 | 4.0 | 0.00 | 0.00 | 0.00 | 64 | 1014.2 |
| 20260506042657 | 69 | 245 | 1.0 | 4.0 | 0.00 | 0.00 | 0.00 | 63 | 1014.0 |
| 20260506042155 | 69 | 234 | 3.0 | 4.0 | 0.00 | 0.00 | 0.00 | 62 | 1014.2 |
| 20260506041653 | 70 | 150 | 2.0 | 4.0 | 0.00 | 0.00 | 0.00 | 62 | 1014.0 |
| 20260506041150 | 70 | 244 | 3.0 | 6.0 | 0.00 | 0.00 | 0.00 | 61 | 1014.2 |
| 20260506040647 | 70 | 264 | 4.0 | 4.0 | 0.00 | 0.00 | 0.00 | 61 | 1014.1 |
| 20260506040144 | 70 | 251 | 2.0 | 3.0 | 0.00 | 0.00 | 0.00 | 60 | 1014.0 |
| 20260506035641 | 71 | 237 | 3.0 | 6.0 | 0.00 | 0.00 | 0.00 | 60 | 1014.2 |
| 20260506035138 | 70 | 247 | 2.0 | 3.0 | 0.00 | 0.00 | 0.00 | 60 | 1014.1 |
| 20260506034635 | 71 | 212 | 2.0 | 5.0 | 0.00 | 0.00 | 0.00 | 59 | 1014.1 |
| 20260506034132 | 71 | 188 | 4.0 | 6.0 | 0.00 | 0.00 | 0.00 | 59 | 1014.0 |
| 20260506033629 | 71 | 227 | 1.0 | 3.0 | 0.00 | 0.00 | 0.00 | 59 | 1014.1 |
| 20260506033126 | 71 | 236 | 3.0 | 4.0 | 0.00 | 0.00 | 0.00 | 58 | 1014.0 |
| 20260506032623 | 71 | 127 | 3.0 | 6.0 | 0.00 | 0.00 | 0.00 | 58 | 1014.1 |
| 20260506032120 | 71 | 255 | 2.0 | 6.0 | 0.00 | 0.00 | 0.00 | 57 | 1014.2 |
| 20260506031617 | 71 | 236 | 0.0 | 8.0 | 0.00 | 0.00 | 0.00 | 57 | 1014.1 |
| 20260506031114 | 72 | 204 | 2.0 | 5.0 | 0.00 | 0.00 | 0.00 | 57 | 1013.9 |
| 20260506030613 | 72 | 233 | 3.0 | 3.0 | 0.00 | 0.00 | 0.00 | 57 | 1014.1 |
| 20260506030109 | 72 | 224 | 2.0 | 2.0 | 0.00 | 0.00 | 0.00 | 56 | 1013.9 |
| 20260506025606 | 72 | 209 | 4.0 | 5.0 | 0.00 | 0.00 | 0.00 | 56 | 1013.9 |
| 20260506025102 | 72 | 195 | 1.0 | 4.0 | 0.00 | 0.00 | 0.00 | 56 | 1014.0 |
| 20260506024600 | 72 | 227 | 4.0 | 5.0 | 0.00 | 0.00 | 0.00 | 55 | 1014.0 |
| 20260506024056 | 72 | 129 | 2.0 | 3.0 | 0.00 | 0.00 | 0.00 | 55 | 1013.9 |
| 20260506023552 | 72 | 263 | 3.0 | 4.0 | 0.00 | 0.00 | 0.00 | 55 | 1014.2 |
| 20260506023050 | 72 | 257 | 2.0 | 2.0 | 0.00 | 0.00 | 0.00 | 55 | 1014.1 |
| 20260506022547 | 72 | 243 | 2.0 | 4.0 | 0.00 | 0.00 | 0.00 | 54 | 1014.2 |
| 20260506022044 | 73 | 252 | 3.0 | 5.0 | 0.00 | 0.00 | 0.00 | 54 | 1014.1 |
| 20260506021541 | 73 | 268 | 2.0 | 4.0 | 0.00 | 0.00 | 0.00 | 54 | 1014.1 |
| 20260506021039 | 73 | 236 | 0.0 | 4.0 | 0.00 | 0.00 | 0.00 | 54 | 1014.0 |
| 20260506020536 | 73 | 165 | 2.0 | 5.0 | 0.00 | 0.00 | 0.00 | 54 | 1014.2 |
| 20260506020033 | 73 | 297 | 1.0 | 2.0 | 0.00 | 0.00 | 0.00 | 54 | 1014.0 |
| 20260506015531 | 73 | 268 | 2.0 | 2.0 | 0.00 | 0.00 | 0.00 | 53 | 1014.0 |
| 20260506015027 | 73 | 223 | 2.0 | 3.0 | 0.00 | 0.00 | 0.00 | 52 | 1013.8 |
| 20260506014525 | 73 | 172 | 2.0 | 3.0 | 0.00 | 0.00 | 0.00 | 52 | 1013.9 |
| 20260506014021 | 74 | 268 | 1.0 | 6.0 | 0.00 | 0.00 | 0.00 | 52 | 1013.7 |
| 20260506013519 | 74 | 209 | 5.0 | 5.0 | 0.00 | 0.00 | 0.00 | 51 | 1013.8 |
| 20260506013015 | 74 | 243 | 3.0 | 3.0 | 0.00 | 0.00 | 0.00 | 51 | 1013.8 |
| 20260506012512 | 74 | 260 | 0.0 | 3.0 | 0.00 | 0.00 | 0.00 | 51 | 1013.5 |
| 20260506012009 | 74 | 230 | 1.0 | 3.0 | 0.00 | 0.00 | 0.00 | 51 | 1013.6 |
| 20260506011506 | 74 | 242 | 2.0 | 3.0 | 0.00 | 0.00 | 0.00 | 50 | 1013.6 |
| 20260506011002 | 74 | 158 | 2.0 | 4.0 | 0.00 | 0.00 | 0.00 | 51 | 1013.5 |
| 20260506010502 | 74 | 183 | 2.0 | 2.0 | 0.00 | 0.00 | 0.00 | 50 | 1013.5 |
| 20260506005957 | 74 | 200 | 0.0 | 6.0 | 0.00 | 0.00 | 0.00 | 49 | 1013.5 |
| 20260506005455 | 75 | 315 | 0.0 | 3.0 | 0.00 | 0.00 | 0.00 | 49 | 1013.7 |
| 20260506004950 | 75 | 274 | 1.0 | 4.0 | 0.00 | 0.00 | 0.00 | 49 | 1013.4 |
| 20260506004448 | 75 | 212 | 2.0 | 2.0 | 0.00 | 0.00 | 0.00 | 49 | 1013.3 |
| 20260506003944 | 75 | 205 | 0.0 | 2.0 | 0.00 | 0.00 | 0.00 | 48 | 1013.3 |
| 20260506003441 | 75 | 216 | 3.0 | 4.0 | 0.00 | 0.00 | 0.00 | 48 | 1013.1 |
| 20260506002937 | 76 | 153 | 1.0 | 4.0 | 0.00 | 0.00 | 0.00 | 47 | 1013.1 |
| 20260506002433 | 76 | 222 | 3.0 | 6.0 | 0.00 | 0.00 | 0.00 | 47 | 1013.1 |
| 20260506001929 | 76 | 352 | 0.0 | 4.0 | 0.00 | 0.00 | 0.00 | 47 | 1013.1 |
| 20260506001426 | 76 | 184 | 1.0 | 3.0 | 0.00 | 0.00 | 0.00 | 46 | 1013.2 |
| 20260506000923 | 76 | 192 | 0.0 | 4.0 | 0.00 | 0.00 | 0.00 | 46 | 1013.0 |
| 20260506000423 | 76 | 226 | 0.0 | 5.0 | 0.00 | 0.00 | 0.00 | 46 | 1013.1 |
| 20260505235917 | 77 | 215 | 1.0 | 5.0 | 0.00 | 0.00 | 0.00 | 45 | 1012.9 |
| 20260505235415 | 77 | 207 | 2.0 | 4.0 | 0.00 | 0.00 | 0.00 | 45 | 1013.1 |
| 20260505234912 | 77 | 231 | 0.0 | 3.0 | 0.00 | 0.00 | 0.00 | 45 | 1012.9 |
| 20260505234410 | 77 | 223 | 0.0 | 5.0 | 0.00 | 0.00 | 0.00 | 44 | 1012.8 |
| 20260505233906 | 77 | 235 | 0.0 | 3.0 | 0.00 | 0.00 | 0.00 | 44 | 1012.9 |
| 20260505233404 | 77 | 251 | 2.0 | 4.0 | 0.00 | 0.00 | 0.00 | 43 | 1012.8 |
| 20260505232901 | 78 | 216 | 3.0 | 5.0 | 0.00 | 0.00 | 0.00 | 43 | 1013.0 |
| 20260505232359 | 78 | 232 | 1.0 | 3.0 | 0.00 | 0.00 | 0.00 | 42 | 1012.8 |
| 20260505231855 | 78 | 273 | 1.0 | 3.0 | 0.00 | 0.00 | 0.00 | 42 | 1012.9 |
| 20260505231353 | 78 | 251 | 1.0 | 5.0 | 0.00 | 0.00 | 0.00 | 41 | 1012.9 |
| 20260505230851 | 78 | 249 | 3.0 | 6.0 | 0.00 | 0.00 | 0.00 | 41 | 1012.6 |
| 20260505230348 | 78 | 253 | 2.0 | 4.0 | 0.00 | 0.00 | 0.00 | 41 | 1013.0 |
| 20260505225844 | 79 | 220 | 4.0 | 4.0 | 0.00 | 0.00 | 0.00 | 40 | 1013.0 |
| 20260505225342 | 79 | 237 | 3.0 | 5.0 | 0.00 | 0.00 | 0.00 | 39 | 1012.9 |
| 20260505224837 | 79 | 206 | 0.0 | 2.0 | 0.00 | 0.00 | 0.00 | 38 | 1012.7 |
| 20260505224335 | 79 | 261 | 2.0 | 3.0 | 0.00 | 0.00 | 0.00 | 37 | 1012.8 |
| 20260505223832 | 80 | 258 | 2.0 | 7.0 | 0.00 | 0.00 | 0.00 | 36 | 1012.8 |
| 20260505223329 | 79 | 198 | 2.0 | 4.0 | 0.00 | 0.00 | 0.00 | 37 | 1012.7 |
| 20260505222824 | 80 | 267 | 2.0 | 4.0 | 0.00 | 0.00 | 0.00 | 37 | 1013.0 |
| 20260505222321 | 80 | 198 | 5.0 | 5.0 | 0.00 | 0.00 | 0.00 | 36 | 1012.9 |
| 20260505221818 | 80 | 267 | 2.0 | 6.0 | 0.00 | 0.00 | 0.00 | 36 | 1012.9 |
| 20260505221315 | 80 | 158 | 4.0 | 6.0 | 0.00 | 0.00 | 0.00 | 36 | 1013.0 |
| 20260505220812 | 80 | 196 | 3.0 | 4.0 | 0.00 | 0.00 | 0.00 | 35 | 1012.8 |
| 20260505220309 | 80 | 214 | 2.0 | 5.0 | 0.00 | 0.00 | 0.00 | 34 | 1012.7 |
| 20260505215807 | 80 | 178 | 3.0 | 5.0 | 0.00 | 0.00 | 0.00 | 34 | 1012.8 |
| 20260505215305 | 80 | 243 | 3.0 | 5.0 | 0.00 | 0.00 | 0.00 | 34 | 1012.7 |
| 20260505214802 | 80 | 300 | 3.0 | 5.0 | 0.00 | 0.00 | 0.00 | 34 | 1012.4 |
| 20260505214300 | 80 | 211 | 5.0 | 5.0 | 0.00 | 0.00 | 0.00 | 33 | 1012.7 |
| 20260505213756 | 80 | 163 | 5.0 | 8.0 | 0.00 | 0.00 | 0.00 | 33 | 1012.7 |
| 20260505213254 | 80 | 153 | 3.0 | 8.0 | 0.00 | 0.00 | 0.00 | 33 | 1012.7 |
| 20260505212749 | 80 | 203 | 4.0 | 7.0 | 0.00 | 0.00 | 0.00 | 33 | 1012.7 |
| 20260505212247 | 81 | 255 | 4.0 | 8.0 | 0.00 | 0.00 | 0.00 | 33 | 1012.6 |
| 20260505211744 | 81 | 186 | 2.0 | 9.0 | 0.00 | 0.00 | 0.00 | 33 | 1012.7 |
| 20260505211241 | 81 | 186 | 2.0 | 6.0 | 0.00 | 0.00 | 0.00 | 32 | 1012.4 |
| 20260505210737 | 81 | 223 | 2.0 | 7.0 | 0.00 | 0.00 | 0.00 | 33 | 1012.7 |
| 20260505210234 | 82 | 302 | 2.0 | 6.0 | 0.00 | 0.00 | 0.00 | 34 | 1012.6 |
| 20260505205732 | 82 | 254 | 2.0 | 9.0 | 0.00 | 0.00 | 0.00 | 33 | 1012.7 |
| 20260505205230 | 82 | 201 | 6.0 | 9.0 | 0.00 | 0.00 | 0.00 | 33 | 1012.4 |
| 20260505204726 | 82 | 89 | 1.0 | 6.0 | 0.00 | 0.00 | 0.00 | 33 | 1012.6 |
| 20260505204224 | 81 | 210 | 1.0 | 4.0 | 0.00 | 0.00 | 0.00 | 33 | 1012.7 |
| 20260505203721 | 82 | 188 | 4.0 | 5.0 | 0.00 | 0.00 | 0.00 | 32 | 1012.3 |
| 20260505203218 | 83 | 261 | 2.0 | 6.0 | 0.00 | 0.00 | 0.00 | 33 | 1012.5 |
| 20260505202713 | 82 | 244 | 3.0 | 8.0 | 0.00 | 0.00 | 0.00 | 32 | 1012.5 |
| 20260505202210 | 82 | 267 | 4.0 | 5.0 | 0.00 | 0.00 | 0.00 | 31 | 1012.5 |
| 20260505201706 | 83 | 254 | 4.0 | 5.0 | 0.00 | 0.00 | 0.00 | 31 | 1012.6 |
| 20260505201205 | 83 | 161 | 2.0 | 5.0 | 0.00 | 0.00 | 0.00 | 31 | 1012.6 |
| 20260505200702 | 82 | 223 | 2.0 | 6.0 | 0.00 | 0.00 | 0.00 | 31 | 1012.8 |
| 20260505200159 | 83 | 260 | 4.0 | 4.0 | 0.00 | 0.00 | 0.00 | 31 | 1012.7 |